Temp
7 7 7 7 7 7 7 6 7 7 7 7 8 10 11 13 15 16 16 15 15 15 16 19 20 21 21 22 23 24 23 23 24 25 26 26 26 27 27 27 27 28 28 29 29 29 28 28 30 30 31 32 32 33 33 33 34 34 33 33 34 33 31 26 24 28 32 34 36 36 36 36 34 34 36 35 33 31 29 28 27 25 24 25 24 22 27
7 7 7 7 7 7 7 7 7 7 7 7 8 10 11 12 13 15 15 15 15 15 17 19 20 21 22 22 22 23 23 23 24 24 25 26 26 26 27 27 27 28 28 28 29 28 27 27 29 30 30 31 32 33 33 32 33 33 32 33 33 30 28 26 23 24 26 28 30 31 32 34 33 34 36 36 35 35 33 32 30 26 24 25 24 22 26
7 7 7 7 7 7 7 7 7 7 7 7 8 9 11 11 13 15 16 16 16 16 18 19 19 20 21 21 21 21 22 23 23 24 24 25 26 26 26 27 27 28 28 28 28 28 27 27 29 30 30 31 32 32 32 32 33 33 30 31 33 31 29 27 23 21 23 23 24 26 28 31 32 33 35 35 36 35 31 28 26 24 24 25 24 23 28
7 7 7 7 7 7 7 7 6 7 7 6 7 9 11 11 13 15 17 17 17 17 18 19 18 19 19 19 19 20 21 22 23 23 23 24 25 26 26 27 27 27 27 27 27 28 28 28 28 29 30 31 32 32 31 31 32 31 29 30 32 32 31 30 26 24 24 24 26 30 31 29 28 30 32 34 35 36 32 27 24 24 25 24 25 27 28
7 7 7 7 7 7 7 7 6 7 7 6 7 9 10 11 12 14 14 15 16 17 18 18 17 17 18 17 18 19 20 21 23 23 23 24 24 25 25 26 26 26 26 26 26 27 28 28 28 28 29 30 31 31 30 31 30 29 30 31 32 30 28 29 29 27 29 30 31 34 34 30 28 30 31 32 35 35 31 27 26 29 25 22 27 30 27
7 7 7 7 7 7 7 6 6 7 6 6 7 9 10 10 12 13 13 12 13 14 15 15 14 15 16 16 17 18 19 20 21 22 23 23 24 24 24 25 25 25 26 26 25 26 26 26 27 28 28 29 30 30 30 31 30 30 31 31 32 29 26 29 30 28 31 33 33 34 34 32 32 32 31 32 33 33 30 29 31 32 26 24 30 31 28
7 7 7 7 7 7 7 6 6 6 6 6 7 9 10 11 11 12 12 11 11 12 12 12 12 13 15 15 16 17 17 18 20 21 22 22 23 23 23 23 25 25 26 25 25 25 25 25 26 27 27 28 28 28 29 31 31 31 31 31 31 29 26 29 30 28 29 32 33 34 33 32 32 32 33 33 33 33 32 32 34 34 30 31 33 32 31
7 7 7 7 7 7 7 6 6 7 6 6 7 9 10 10 10 11 10 9 10 10 11 12 12 13 14 15 15 17 17 17 19 20 20 20 21 23 23 23 24 25 25 25 25 25 25 25 26 27 27 27 28 28 28 30 31 31 31 31 30 28 26 30 30 26 26 30 32 32 33 31 30 31 33 34 33 33 33 33 34 33 31 34 35 31 32
7 7 6 7 7 6 7 6 6 6 6 6 8 9 10 10 10 10 9 8 10 11 11 12 12 12 14 15 15 16 17 17 17 17 18 19 20 21 22 22 22 23 24 24 25 26 26 25 26 26 26 26 27 27 28 29 30 30 31 30 29 28 27 29 28 23 23 28 30 30 31 31 28 28 31 32 31 31 32 34 34 33 31 31 30 28 31
7 7 7 6 6 6 6 6 6 6 6 6 7 9 10 9 10 10 9 8 10 11 11 12 12 12 14 15 15 16 16 16 15 15 17 19 19 20 19 19 19 21 22 23 24 24 24 24 24 25 25 25 26 26 27 28 28 29 30 29 29 29 28 27 26 23 23 27 29 29 29 26 24 27 31 33 33 33 33 34 36 36 34 31 29 30 34
6 7 7 6 6 6 6 6 6 6 6 7 8 8 9 9 9 9 9 8 10 11 12 12 12 13 14 15 15 15 15 15 14 14 15 17 18 18 17 17 18 19 21 22 22 22 23 23 23 24 24 25 25 26 26 27 27 27 28 28 28 29 27 27 26 23 22 26 29 28 25 22 24 31 35 35 34 34 33 33 35 36 36 35 34 35 37
6 6 6 6 6 6 6 6 6 6 5 6 7 8 8 8 8 8 8 8 10 12 12 12 13 14 14 14 14 14 14 14 15 14 14 15 15 16 16 16 17 18 21 21 21 21 22 23 23 24 24 24 25 26 26 26 27 28 28 28 28 27 27 27 27 24 23 25 26 23 21 23 29 35 36 35 35 35 34 35 36 36 36 36 36 36 36
6 6 6 6 6 6 6 6 6 6 6 6 6 7 8 8 8 7 7 7 9 11 11 12 13 13 14 14 13 14 14 14 15 15 14 14 15 15 16 16 17 18 20 20 20 20 21 22 23 23 24 25 25 25 26 26 26 28 28 28 28 27 27 27 26 25 24 23 22 22 23 28 32 34 34 35 35 35 33 32 34 36 36 36 36 36 36
6 6 6 6 6 6 6 6 6 6 6 6 6 6 7 8 7 8 7 7 8 10 11 11 12 13 13 13 13 13 14 14 14 15 15 15 15 15 16 17 18 19 19 19 19 19 20 21 22 22 23 24 23 24 25 26 27 27 28 29 29 28 27 26 25 24 24 22 21 23 24 26 29 31 32 33 33 34 32 29 31 36 37 36 36 36 36
6 6 6 6 6 6 6 6 6 6 6 6 6 6 7 7 7 7 7 7 7 9 10 11 12 13 13 13 13 13 13 14 14 15 15 15 15 15 16 17 18 18 18 18 18 19 20 21 21 21 22 22 22 23 25 26 27 28 28 28 28 28 27 26 24 24 24 22 21 23 22 22 25 29 31 31 30 31 31 29 30 35 36 36 36 36 35
6 6 6 6 6 6 6 6 6 6 6 6 6 6 6 6 6 7 7 6 6 8 10 11 12 12 11 11 12 12 12 14 14 14 15 15 15 15 16 16 17 18 18 18 18 19 20 21 21 21 22 22 22 23 24 25 26 27 29 28 28 27 27 27 25 23 23 22 21 22 21 22 25 28 29 29 29 30 30 27 27 33 36 35 35 35 35
6 6 6 6 6 6 6 6 6 6 6 6 6 6 6 6 6 6 7 6 6 7 10 11 11 11 10 10 11 12 12 13 13 13 13 15 15 15 15 16 17 18 18 18 18 19 19 20 21 21 22 24 24 23 24 24 23 24 26 26 26 26 26 26 24 22 23 22 21 22 23 24 26 27 27 28 29 29 27 23 25 32 35 34 34 35 34
6 6 6 6 6 6 6 6 6 6 6 6 6 5 6 7 7 6 7 7 6 7 10 12 11 11 11 11 11 12 12 12 12 12 12 14 14 14 13 14 16 18 19 18 18 18 19 19 21 21 22 25 26 24 24 24 23 23 24 24 24 25 25 25 24 22 22 22 21 22 24 25 26 27 27 29 29 27 24 23 26 31 32 32 33 33 33
6 6 6 6 6 6 6 6 6 6 6 6 6 6 6 7 7 6 7 6 6 7 10 12 11 11 12 13 12 12 12 12 11 11 11 13 14 14 14 14 15 17 18 18 17 18 18 19 21 22 22 24 25 25 25 25 24 24 24 23 23 23 23 24 24 23 23 23 22 22 23 25 25 26 28 29 27 25 24 26 28 29 29 31 32 32 32
6 6 6 6 6 6 6 6 6 6 6 6 6 6 7 7 7 6 6 6 6 7 9 11 11 11 12 12 12 12 12 11 11 11 11 13 14 13 13 15 15 15 17 17 17 17 17 18 20 22 22 22 23 24 25 25 26 26 25 24 24 24 23 22 23 24 23 22 21 21 22 24 25 26 27 28 26 25 26 27 28 29 30 31 31 32 32
6 6 6 6 6 6 6 6 6 6 6 6 6 6 6 7 7 6 7 7 7 7 9 11 11 11 12 12 12 12 12 11 12 12 12 13 13 12 13 14 13 14 15 16 16 16 17 17 19 21 22 22 21 22 23 24 25 26 27 26 26 26 24 23 24 25 23 21 22 22 22 24 25 25 25 26 26 26 27 27 28 29 29 29 29 30 30
6 6 6 6 6 6 6 6 6 6 6 6 6 6 7 7 7 7 7 7 6 7 8 10 10 10 11 11 11 12 12 12 12 12 12 12 12 12 13 13 13 13 14 14 14 15 15 16 17 18 19 20 20 21 23 24 23 24 26 26 25 26 27 26 25 25 24 23 24 24 23 24 25 25 25 26 26 26 27 28 28 28 28 28 28 28 29
6 6 6 6 6 6 6 6 6 6 6 6 6 6 7 7 7 7 6 6 7 7 8 9 9 10 10 11 11 11 11 11 12 12 12 12 12 12 13 13 13 14 14 13 13 13 13 14 16 17 18 20 20 21 22 23 23 24 25 25 25 26 27 28 26 24 24 24 23 23 23 23 24 25 25 26 26 26 27 27 27 27 27 27 27 28 28
6 6 6 6 6 6 6 6 6 6 6 6 6 6 6 7 7 7 6 7 7 7 8 10 11 11 12 13 13 12 12 12 12 12 12 12 11 12 13 13 13 13 13 12 12 12 12 13 16 17 18 20 21 22 22 21 22 23 24 25 25 24 25 27 25 23 23 23 22 22 22 22 23 25 25 25 26 26 26 26 26 26 26 26 27 27 27
6 6 6 6 6 6 6 6 6 6 6 6 6 6 6 7 7 6 6 7 7 7 8 9 11 12 12 13 13 13 13 13 13 12 12 12 12 12 13 14 14 14 13 12 12 12 12 13 15 16 17 19 21 22 22 21 21 22 23 23 23 22 23 25 25 23 23 22 21 21 21 20 22 24 24 24 24 24 25 26 26 26 26 26 26 27 26
6 6 6 6 6 6 6 6 6 6 6 6 6 6 6 7 7 6 7 7 7 7 7 8 11 13 13 13 13 13 13 13 13 13 13 13 12 12 13 13 14 14 13 12 11 11 10 11 14 15 16 18 20 21 21 21 21 21 20 19 20 20 22 24 24 24 22 21 20 21 20 20 21 21 21 21 22 23 24 25 26 26 26 26 26 26 26
6 6 6 6 6 6 6 6 6 6 6 6 6 6 7 7 7 7 7 7 7 7 8 9 11 13 13 13 13 13 13 13 13 13 13 13 13 13 13 12 12 13 13 11 11 11 9 10 12 14 15 17 19 20 20 20 20 20 17 16 18 20 20 22 24 24 22 20 20 20 20 19 19 19 19 20 21 22 22 22 23 25 25 25 25 25 25
6 6 6 6 6 6 6 6 6 6 6 6 6 6 7 7 7 7 7 8 7 7 8 9 10 11 12 12 13 14 13 13 13 14 14 14 13 13 13 12 12 12 12 12 11 11 11 11 12 13 14 16 18 20 19 18 18 18 16 15 16 17 17 18 20 22 22 21 20 20 19 18 17 17 18 18 20 21 21 20 20 22 23 24 24 24 24
6 6 6 6 6 6 6 6 6 6 6 6 6 7 7 7 7 7 7 7 7 7 7 8 9 10 11 13 14 14 14 14 14 14 14 14 14 13 13 13 13 13 13 12 12 11 11 13 13 13 14 15 18 19 19 18 16 15 14 14 15 16 17 17 18 19 21 21 20 20 18 17 16 16 17 17 18 19 20 20 19 20 21 22 22 23 23
6 6 6 6 6 6 6 6 6 6 6 6 7 8 8 8 7 7 7 7 7 7 7 7 8 10 12 13 13 14 15 15 15 15 15 14 14 14 14 13 13 13 12 12 12 11 11 13 15 15 15 16 17 18 19 18 16 14 13 14 15 16 17 17 18 19 20 21 20 19 18 16 16 16 16 16 17 17 18 18 18 19 19 20 21 21 22
6 6 6 6 6 6 6 6 6 6 6 6 7 8 8 7 7 6 6 6 6 7 7 6 8 10 12 13 14 15 16 16 16 16 15 14 14 14 14 14 14 13 12 12 13 12 12 13 16 17 16 16 16 17 19 19 17 14 14 14 14 15 15 16 17 19 20 20 19 19 18 17 16 16 15 15 16 17 17 17 17 18 18 19 20 20 21
6 6 6 6 6 6 6 6 6 6 6 7 7 7 7 7 6 6 6 6 6 6 6 7 8 10 12 14 16 16 17 17 16 15 14 13 14 14 15 14 14 14 13 13 13 13 13 14 16 17 17 16 17 18 19 18 16 14 14 14 14 14 14 14 16 18 19 19 20 19 18 17 16 16 15 15 16 16 16 17 17 18 18 19 20 20 20
6 6 6 6 6 6 6 6 6 6 6 7 7 7 8 7 7 6 6 6 6 7 7 7 8 10 12 13 15 16 17 16 15 14 14 14 14 14 14 14 14 14 14 13 12 13 15 17 18 18 17 17 18 18 16 16 15 14 14 15 14 14 14 14 15 15 16 17 18 18 17 16 16 16 16 16 16 16 17 18 18 19 18 18 19 19 18
6 6 6 6 6 6 6 6 6 6 6 7 8 9 8 7 7 7 6 6 7 7 8 8 9 10 12 13 14 16 17 15 14 14 14 15 15 14 13 14 14 14 14 14 14 15 17 18 18 18 17 18 18 16 14 14 14 14 14 14 14 14 14 14 14 14 14 15 16 16 16 17 16 16 16 16 16 16 17 18 19 18 18 18 18 18 18
6 6 6 6 6 6 6 6 6 6 7 8 9 9 8 7 8 7 6 6 7 7 8 9 9 9 10 12 14 16 16 15 15 15 15 16 16 16 15 15 14 15 16 16 16 17 17 17 18 17 16 17 16 15 13 14 14 14 14 14 14 14 14 13 13 13 14 14 14 15 15 15 15 15 14 15 15 15 16 17 18 18 18 18 18 18 18
6 6 7 7 6 6 7 7 7 7 8 9 9 8 7 7 7 7 6 7 7 8 9 10 9 9 10 12 14 16 17 17 17 18 18 17 17 18 17 16 15 17 18 17 17 17 17 17 18 17 16 15 14 13 13 14 14 13 13 13 13 13 13 13 13 13 14 14 14 14 14 14 14 14 14 14 14 15 15 16 17 18 17 17 17 17 17
7 7 7 7 7 7 8 8 8 8 8 9 9 8 8 7 7 7 7 7 7 8 9 9 9 10 11 12 13 16 17 17 18 18 18 18 18 18 19 18 18 19 19 17 16 17 18 18 18 16 15 14 14 13 14 14 14 13 13 13 13 13 13 13 13 14 14 14 14 13 14 14 13 14 14 14 14 15 15 16 17 17 17 17 17 17 17
7 7 7 8 9 9 9 9 9 8 8 8 9 9 9 9 8 8 9 9 8 8 9 8 9 11 12 12 14 16 16 16 18 18 18 18 19 19 19 19 19 18 17 16 16 17 18 18 17 16 15 15 15 14 14 14 14 14 14 13 13 13 13 13 14 14 14 14 14 14 14 14 14 14 14 14 14 15 15 16 17 17 18 18 18 18 18
8 8 9 9 10 10 10 9 8 8 8 8 9 10 10 10 10 10 10 10 10 9 9 9 10 11 12 12 14 16 16 16 17 18 18 19 19 18 19 19 18 18 17 17 17 17 17 17 17 16 15 15 15 14 14 14 15 15 14 14 14 14 14 14 14 14 14 13 13 14 14 14 14 14 15 15 15 16 16 16 17 18 18 18 18 18 18
9 9 9 10 10 10 9 8 7 8 9 10 10 11 10 10 10 11 11 11 10 11 11 11 11 12 13 12 13 14 15 16 16 16 17 18 19 19 19 19 19 18 17 17 17 17 17 17 17 16 15 15 14 14 14 15 15 15 15 15 15 15 15 14 15 15 15 14 14 14 14 14 15 15 16 16 16 17 17 17 17 17 18 18 18 18 18
8 8 9 9 9 8 7 7 8 9 10 11 11 10 10 11 11 12 11 11 11 12 12 12 12 12 13 13 13 13 15 16 16 16 16 18 19 19 19 19 19 18 17 16 16 17 17 17 16 16 15 14 14 15 15 15 15 15 15 15 15 15 15 15 15 15 15 15 14 14 14 15 15 16 16 16 17 17 17 17 17 18 18 18 18 18 18
7 7 7 7 7 7 8 9 10 11 11 11 11 11 11 11 12 12 12 12 12 12 12 11 11 11 12 13 12 13 14 16 16 17 17 18 18 19 19 19 18 17 16 16 17 17 17 16 15 15 15 15 15 15 15 15 15 15 15 15 15 16 16 16 16 16 16 15 15 15 15 15 15 16 17 17 17 17 17 17 17 18 18 18 18 18 18
6 7 6 7 8 10 10 11 11 11 11 11 10 11 11 12 12 12 12 13 13 12 12 11 11 12 12 12 13 14 15 15 15 16 17 17 17 17 17 17 17 16 15 15 16 16 16 15 14 14 15 15 15 15 15 15 15 15 15 15 16 16 16 16 16 16 16 16 16 16 16 16 16 16 17 17 18 18 18 17 17 18 18 18 18 18 18
8 8 8 8 10 11 11 10 11 11 10 10 10 11 11 12 12 12 12 12 12 12 12 11 11 12 13 13 14 14 15 15 16 16 17 17 16 15 16 16 16 16 16 15 15 15 15 14 13 14 15 15 14 14 15 15 15 16 16 16 16 16 16 16 16 16 17 16 16 16 16 16 17 17 17 17 17 18 18 18 18 18 18 18 18 18 17
9 9 9 9 9 10 10 9 10 10 9 9 10 10 10 11 11 11 12 12 12 12 11 11 12 12 13 13 14 14 14 15 16 16 16 16 15 14 15 16 17 17 16 16 15 15 14 13 13 14 15 15 15 14 15 15 16 16 16 16 16 16 16 16 17 17 17 17 17 17 17 17 17 17 17 17 17 18 18 18 18 18 18 18 19 18 17
9 10 10 10 9 8 9 9 9 9 9 9 10 10 10 11 11 11 12 12 12 11 11 12 13 14 13 13 14 14 14 15 15 15 15 15 14 13 14 16 16 16 16 15 15 14 14 13 14 14 15 15 15 14 15 15 16 16 17 16 16 16 17 17 17 17 17 17 17 17 17 17 17 17 17 17 17 17 18 17 17 18 18 18 18 18 18
9 9 10 10 9 8 9 9 8 8 9 9 10 11 11 11 11 11 12 13 12 12 13 14 14 14 14 13 13 13 15 15 15 15 15 14 13 13 15 15 14 14 15 15 14 14 13 13 14 14 15 15 15 15 15 16 16 17 17 17 17 17 17 17 17 17 17 17 17 17 17 18 18 17 17 18 17 17 17 17 17 17 18 18 18 18 18
9 9 9 9 9 9 9 9 8 8 9 9 10 11 12 12 11 12 13 14 13 14 14 15 15 15 15 15 14 15 15 16 15 14 14 13 12 13 14 14 13 13 14 14 14 14 13 13 13 14 15 15 15 15 15 16 17 17 17 17 17 17 17 17 17 17 18 18 18 17 17 18 18 18 18 18 18 17 17 17 17 17 18 18 18 18 18
9 10 10 10 10 11 11 10 10 10 12 13 13 13 14 14 14 14 14 14 14 14 14 14 15 15 14 15 15 16 15 15 14 14 14 13 12 12 13 13 13 13 13 13 13 14 13 13 14 15 15 15 15 15 16 16 17 17 17 17 18 18 18 18 18 18 18 18 18 18 18 18 18 18 18 18 18 18 17 18 18 18 18 18 18 18 18
10 11 11 11 11 12 13 13 13 13 14 15 15 14 14 14 14 15 14 13 13 14 14 14 14 14 14 14 15 15 14 14 14 14 13 12 12 12 13 12 12 12 13 13 13 13 14 14 14 15 15 15 15 16 16 16 16 17 17 18 18 18 18 18 18 18 18 18 18 18 18 18 18 18 18 18 18 18 18 18 18 18 18 18 18 18 18
11 12 12 12 12 12 13 13 13 13 14 14 14 14 14 14 14 14 14 13 14 14 15 15 15 15 14 13 13 13 13 14 14 13 12 11 12 12 12 12 12 12 13 13 13 13 13 14 15 15 15 15 15 16 16 17 17 17 18 18 18 19 19 19 19 19 19 18 18 18 19 18 18 18 18 18 18 19 19 19 19 19 19 19 19 18 18
11 12 12 13 14 13 13 13 13 13 13 14 14 14 14 14 14 14 14 15 15 16 16 16 16 15 14 13 12 13 13 13 12 12 12 12 12 12 12 12 12 13 13 14 14 14 13 14 15 15 15 15 15 16 16 17 17 18 18 18 19 19 19 19 19 19 19 19 19 19 18 18 18 18 18 19 19 19 19 19 19 19 19 19 19 19 19
Height
808 807 805 804 803 802 800 799 797 796 793 790 788 784 777 770 761 753 752 753 754 754 749 736 729 724 717 712 709 707 707 707 704 700 698 697 696 695 694 693 694 693 689 689 689 689 690 689 686 685 683 678 672 667 666 667 666 670 679 677 672 678 691 705 707 695 684 677 671 670 671 676 684 683 681 686 691 695 700 706 712 713 711 714 725 732 712
806 805 804 803 802 801 799 798 797 796 794 793 790 784 778 772 764 755 751 751 752 751 744 733 725 718 713 712 710 707 705 704 703 701 699 695 694 694 691 689 690 688 686 687 688 688 691 690 684 683 685 677 668 665 666 669 668 670 675 672 670 681 694 702 713 715 708 700 693 685 679 682 687 682 677 679 681 686 690 692 703 711 707 709 723 728 709
804 803 803 801 801 800 799 798 797 795 795 793 791 786 779 772 762 752 747 748 748 745 737 730 726 721 717 717 715 711 706 701 699 700 697 692 690 691 688 684 684 684 685 686 685 684 687 688 682 680 681 674 667 666 668 669 666 667 672 667 664 679 690 695 708 722 724 720 710 697 688 686 686 682 678 677 675 681 689 694 706 712 703 702 709 711 700
802 801 801 800 799 798 797 797 796 795 794 793 791 787 780 772 762 751 744 741 741 739 732 729 730 727 725 724 720 714 708 701 696 697 698 694 690 689 686 682 681 683 685 687 687 683 682 684 683 681 680 674 667 667 669 669 667 670 674 670 668 679 683 683 693 700 700 700 692 681 679 685 689 686 682 680 676 676 683 693 702 700 699 704 701 696 696
800 799 798 798 797 796 796 795 795 794 793 792 791 787 781 776 766 756 752 748 743 737 730 730 733 732 730 730 723 715 711 705 697 695 695 694 692 691 688 684 684 685 685 688 689 685 682 683 683 683 680 673 668 668 670 670 671 673 672 668 673 685 685 680 686 687 681 679 677 672 673 679 682 682 682 680 676 676 682 687 686 686 697 707 695 689 697
797 796 796 795 794 794 794 793 793 793 792 792 790 786 781 777 767 759 761 761 752 745 741 742 744 741 737 733 726 721 718 712 705 698 694 691 690 692 691 687 685 684 684 687 689 687 687 686 684 683 682 679 676 674 670 669 669 670 670 667 672 686 688 680 681 683 677 672 671 670 671 673 674 675 676 675 675 678 680 678 674 678 691 696 686 685 694
795 794 793 793 792 792 791 791 791 791 791 790 789 785 779 775 769 764 765 765 759 756 754 752 750 746 740 735 729 725 722 717 708 700 698 697 690 690 694 690 684 683 682 684 687 688 689 688 684 681 682 682 682 681 676 669 665 666 670 668 670 682 687 681 680 683 680 674 672 669 669 672 672 672 672 671 671 672 674 673 671 673 679 678 676 681 683
792 791 791 790 789 789 788 789 789 788 789 789 787 784 779 775 772 770 771 770 765 761 757 754 751 744 739 736 730 725 723 719 711 703 705 707 697 690 692 689 683 683 681 682 685 682 682 684 681 679 683 683 680 680 678 670 664 665 669 670 672 681 687 682 680 687 685 677 673 670 669 670 671 670 669 668 668 667 667 668 669 672 675 672 672 679 677
789 788 788 787 786 786 786 786 786 786 787 786 784 781 778 777 776 775 776 772 764 758 754 751 751 746 739 734 729 725 723 721 719 714 709 709 703 695 693 693 690 686 682 681 681 677 677 681 679 677 682 682 679 678 675 671 671 668 667 671 674 680 684 680 683 695 690 675 674 674 668 667 670 669 666 666 668 667 664 661 661 665 671 674 676 679 673
786 785 784 784 783 783 783 783 783 784 784 784 782 778 776 777 776 774 775 772 762 757 753 749 748 745 737 731 727 726 724 723 727 725 712 704 703 700 701 703 701 695 690 687 684 682 682 683 680 678 679 678 677 678 675 673 675 673 669 672 675 677 682 681 686 697 690 674 671 670 671 680 680 665 658 659 661 662 660 656 653 652 657 668 672 667 659
783 782 781 781 781 780 780 780 781 781 782 781 779 777 776 777 776 773 774 771 759 753 750 745 742 737 732 730 728 727 726 726 728 730 721 710 706 707 709 709 707 702 696 689 686 685 684 683 681 680 680 679 677 677 676 673 673 673 672 675 675 677 681 681 683 694 694 680 670 673 688 698 679 649 640 647 651 654 657 655 650 646 647 651 652 649 647
780 779 778 778 778 777 777 777 777 777 778 778 777 776 774 775 776 775 775 770 758 749 746 740 735 733 731 731 732 729 728 727 726 727 726 719 715 713 712 712 711 705 695 689 689 688 685 683 681 678 678 678 676 674 675 675 672 668 667 671 676 680 683 681 681 689 690 680 681 700 709 691 659 637 633 635 638 643 648 648 643 641 642 644 647 647 644
777 776 775 775 775 774 774 774 774 774 774 775 775 774 773 773 774 773 773 770 760 751 745 739 734 734 733 731 732 730 727 725 723 723 724 722 718 715 712 711 710 702 694 693 694 693 691 687 684 680 676 674 674 673 670 671 670 666 663 664 670 678 682 681 680 684 688 689 698 709 699 668 648 644 639 634 636 640 647 651 643 635 636 640 644 646 643
773 773 772 772 771 771 771 771 771 771 771 772 772 771 771 772 771 770 770 770 761 751 746 742 736 733 732 731 730 728 725 724 722 719 719 719 717 714 711 709 706 701 699 699 697 696 695 690 685 683 677 676 679 676 668 664 664 662 662 660 662 671 677 680 684 686 689 696 697 691 684 672 661 654 647 643 645 645 648 655 646 632 629 633 637 641 641
770 769 769 769 768 768 768 767 767 768 768 769 768 768 769 769 768 768 768 769 765 756 748 743 737 733 732 732 731 730 726 722 720 717 715 715 714 712 709 707 705 703 702 702 702 698 693 689 688 686 681 678 679 673 664 661 658 655 656 657 659 666 670 678 688 688 685 694 700 698 700 692 672 659 652 648 649 647 646 654 650 633 624 627 631 637 639
768 767 766 766 765 765 765 764 764 765 765 765 765 765 766 766 766 766 766 768 768 758 745 740 739 739 740 738 735 733 728 722 719 719 715 711 711 712 710 706 704 703 702 702 702 696 691 689 686 682 674 667 667 666 660 659 659 654 652 655 660 665 667 672 683 686 684 693 704 708 706 691 673 666 660 652 651 648 649 661 659 636 624 626 629 634 636
764 764 763 763 762 762 762 762 761 761 762 762 763 763 762 762 763 764 764 765 766 757 744 740 742 742 743 742 736 732 729 724 723 723 719 714 713 713 711 707 701 697 697 699 698 693 691 687 681 678 668 654 654 660 656 655 661 661 659 664 667 669 671 674 679 682 684 691 697 698 692 681 671 668 662 655 650 650 664 680 665 632 622 626 628 631 633
761 761 760 760 760 759 759 759 759 759 759 760 760 760 759 759 760 762 761 762 763 756 744 741 740 738 737 738 734 731 731 729 728 728 725 719 714 714 714 711 703 695 692 694 695 693 692 687 678 676 666 647 645 655 654 652 660 664 664 670 673 671 671 673 676 680 684 689 695 692 682 673 670 668 661 654 652 659 674 678 656 633 628 628 625 628 631
758 758 758 758 758 757 757 756 757 757 756 757 758 758 757 756 757 759 758 759 760 754 743 739 739 737 734 734 733 731 733 732 732 734 731 721 713 714 713 709 705 699 692 692 694 693 693 688 674 666 663 654 648 649 647 646 652 657 662 668 671 673 674 673 673 677 680 682 688 692 685 672 669 668 658 653 663 673 669 656 643 639 636 630 626 627 627
756 756 755 755 755 755 754 754 754 754 754 755 755 754 754 754 755 756 756 756 756 751 742 738 738 736 734 733 732 731 731 731 731 732 729 720 714 716 713 706 706 703 695 693 694 691 692 690 674 662 661 659 653 649 645 644 643 643 652 660 660 663 671 675 671 671 678 685 691 699 695 677 668 669 664 661 669 670 659 648 643 639 635 632 630 627 625
754 753 753 753 753 753 752 751 751 752 752 753 753 752 752 752 752 753 753 753 753 749 740 736 736 735 733 732 730 729 729 730 729 728 725 721 721 722 716 709 711 709 700 697 697 692 691 689 677 666 661 659 661 659 651 648 646 639 638 646 650 652 658 664 663 662 672 684 687 687 683 671 666 672 673 668 666 660 652 650 647 642 641 640 638 634 631
752 751 751 751 751 750 750 750 750 750 750 750 751 751 750 748 748 750 750 750 749 745 739 737 736 734 733 731 729 728 727 727 727 727 726 724 723 722 716 711 713 711 705 704 703 699 698 694 684 677 672 667 668 663 648 644 649 645 640 644 648 646 642 646 653 657 660 666 668 666 666 665 666 670 669 665 661 656 651 650 648 647 647 644 643 643 640
750 749 749 749 748 748 748 748 748 748 748 748 749 748 748 746 746 747 748 747 745 742 738 736 733 730 727 725 724 724 724 725 725 724 725 725 721 718 716 713 713 710 707 710 710 707 707 702 690 683 678 668 664 661 654 648 646 646 647 647 645 641 635 636 649 658 658 661 662 662 665 669 669 668 666 663 659 655 652 652 652 651 649 646 647 647 645
749 748 747 747 747 747 746 746 746 747 746 746 747 746 747 746 745 745 746 745 744 741 735 728 725 723 719 716 716 717 717 719 719 718 721 723 720 716 713 711 711 710 709 712 713 710 710 703 689 682 678 666 656 655 657 658 655 649 646 644 643 643 640 639 649 661 665 669 669 665 669 676 674 669 667 664 661 657 655 655 655 653 650 649 649 649 649
747 747 746 746 745 745 745 745 744 744 744 745 745 745 745 744 743 744 745 743 742 741 735 726 719 717 715 712 712 713 712 712 713 714 716 717 715 714 711 708 708 710 710 713 714 713 712 705 693 688 682 668 657 654 655 660 662 655 650 651 654 654 649 645 651 659 664 669 670 667 671 678 676 673 672 670 667 663 658 656 656 654 653 653 652 653 655
746 745 745 745 744 744 744 743 743 743 743 743 743 743 743 742 741 742 742 742 740 739 736 727 716 712 712 710 708 709 708 708 709 709 710 711 712 713 712 710 710 710 711 715 716 715 717 711 699 694 687 672 661 659 658 658 658 659 664 670 667 661 656 651 652 658 666 672 672 670 676 684 683 681 680 676 672 669 665 661 659 657 657 658 657 659 659
745 744 744 744 743 743 742 742 742 742 741 741 742 742 741 741 741 741 740 741 740 736 730 722 714 710 710 707 704 704 704 704 704 704 705 707 709 711 711 712 713 712 712 715 716 716 719 716 704 696 689 676 664 661 661 662 661 665 677 682 673 666 666 661 656 661 670 675 673 672 681 692 693 690 686 681 677 674 672 669 667 665 665 665 665 665 665
744 743 743 743 742 742 741 741 741 740 740 740 740 740 739 739 739 739 739 739 739 735 730 724 718 714 710 704 699 698 699 698 699 700 702 703 705 708 709 710 712 712 712 714 714 713 714 712 705 699 691 680 670 666 667 671 672 675 685 690 684 682 682 675 670 669 668 668 670 672 680 691 696 694 691 687 682 679 678 678 677 675 673 671 672 673 672
744 743 743 742 741 741 741 740 740 740 739 739 738 738 737 736 736 737 737 737 738 736 733 729 721 713 706 699 695 694 694 694 695 696 698 700 702 704 706 708 709 710 710 711 713 714 712 706 701 698 692 682 675 670 669 676 686 692 695 694 688 685 682 678 678 677 670 666 670 674 678 688 696 695 693 691 688 684 683 684 685 684 682 680 679 680 679
743 743 742 741 741 741 740 739 739 739 738 738 738 736 734 733 735 735 734 735 736 735 735 733 726 713 703 697 694 691 689 689 691 692 694 697 699 700 702 705 706 708 709 709 710 713 712 703 693 688 684 678 676 674 670 675 688 698 700 695 690 687 683 679 677 674 670 668 672 675 680 689 695 695 694 694 694 690 689 690 691 691 689 688 687 686 685
743 743 742 741 741 740 739 739 739 738 738 738 736 734 732 733 734 734 733 735 736 735 735 733 725 711 700 693 689 687 686 685 687 689 692 695 697 698 700 701 703 705 709 708 707 709 709 700 688 682 678 676 676 675 670 672 685 697 699 696 693 691 688 684 679 673 670 671 674 679 684 690 694 694 695 697 698 696 696 697 696 694 694 693 691 691 690
743 742 741 741 740 739 739 739 738 738 737 736 735 733 732 733 734 734 734 735 735 735 734 731 722 710 698 689 684 681 682 683 686 690 693 695 695 695 697 698 700 702 703 705 707 708 702 692 683 680 678 676 675 674 672 677 690 700 699 695 694 693 691 690 685 679 676 674 675 680 688 693 693 694 696 699 700 698 698 698 698 696 696 696 694 692 692
743 741 741 740 739 738 738 738 737 737 736 735 733 732 731 732 733 733 734 735 734 733 732 729 721 711 699 690 684 680 679 682 686 689 691 692 692 694 696 697 698 699 700 703 706 702 692 682 678 678 677 674 673 678 685 690 696 699 697 695 696 695 694 694 691 687 684 681 679 683 691 695 694 693 695 697 698 698 697 697 697 697 697 697 697 695 695
742 741 740 739 738 737 737 736 735 735 734 733 731 729 730 731 731 731 733 734 732 731 729 726 720 711 700 690 684 679 678 683 686 688 688 688 688 691 695 696 697 696 696 697 696 690 683 676 674 677 678 675 675 686 697 700 698 698 698 698 698 698 698 698 697 695 693 691 689 690 693 695 694 695 696 697 699 700 699 699 700 701 700 700 700 699 698
741 740 739 737 736 736 735 734 734 734 732 730 729 729 730 730 729 730 731 731 731 730 726 721 718 715 706 694 684 678 678 679 680 681 682 683 684 684 687 692 695 692 689 687 684 682 681 677 674 679 684 684 686 695 702 702 700 700 701 701 700 700 701 702 703 702 700 698 698 698 698 698 699 701 702 703 703 703 703 703 703 704 704 704 703 702 701
740 738 737 735 734 734 733 733 733 732 730 730 730 730 730 729 728 729 729 729 730 729 723 719 719 717 711 700 688 680 677 673 669 669 672 676 679 678 679 686 688 681 676 679 681 680 679 676 675 683 689 691 697 703 702 700 701 702 704 705 704 703 704 706 706 706 703 701 701 703 703 704 705 706 708 709 707 706 707 707 705 705 706 706 705 705 704
738 737 735 734 733 733 732 732 731 730 730 729 728 728 728 728 728 729 728 727 728 726 724 723 720 713 707 702 691 681 677 673 668 668 671 672 673 673 673 676 677 672 673 681 683 678 675 674 678 688 695 697 701 704 701 700 702 703 704 706 706 705 707 708 707 706 705 704 705 706 706 707 708 709 711 711 710 709 710 710 709 708 708 707 706 705 705
737 735 735 733 731 730 730 730 730 730 729 728 727 727 726 725 725 726 724 724 725 724 723 724 718 708 704 701 690 681 679 676 669 668 669 669 669 670 668 668 669 672 678 684 681 675 676 678 682 690 698 698 699 701 701 701 702 703 704 706 706 706 707 708 707 707 708 708 709 709 708 708 710 711 712 713 712 712 712 712 711 709 708 707 706 705 704
737 735 734 733 730 729 729 730 729 728 728 727 727 725 723 722 722 722 720 719 721 720 719 719 714 706 702 698 689 682 682 678 672 669 668 666 668 670 668 668 670 674 679 682 679 678 683 686 686 690 698 700 701 703 704 703 703 704 705 705 706 706 707 708 708 708 709 710 711 711 710 710 711 712 712 712 711 711 711 711 709 708 706 706 705 703 703
737 735 734 732 731 730 731 730 729 728 727 725 724 722 721 720 719 718 717 717 716 714 713 712 709 703 700 699 696 690 684 680 679 678 674 668 664 665 667 667 668 671 678 682 680 678 681 684 687 692 699 703 704 704 704 704 705 705 705 705 706 706 706 707 708 708 708 709 710 710 710 710 710 710 710 709 708 708 709 708 708 707 705 704 704 703 702
739 738 736 734 733 733 732 730 729 727 724 722 722 722 721 719 715 713 714 714 711 708 707 707 706 702 698 697 697 694 687 681 679 679 677 670 664 665 669 668 666 671 681 686 682 679 681 686 692 698 703 704 704 704 704 705 706 706 706 706 706 706 706 706 707 707 707 709 709 709 710 710 709 708 708 708 707 707 706 706 706 706 704 704 703 702 701
741 739 738 736 735 734 731 728 726 725 722 721 721 720 718 715 713 712 712 709 707 707 707 708 708 706 701 699 698 695 688 683 679 676 675 672 669 668 670 669 670 678 687 688 683 682 686 693 699 704 705 705 704 705 706 706 707 707 707 707 707 706 706 706 707 708 708 708 709 708 708 708 707 707 707 706 706 706 706 706 706 705 704 703 702 701 700
740 739 738 737 734 731 729 726 724 723 723 723 723 721 717 713 710 710 709 707 706 707 708 709 708 704 701 699 697 691 687 686 683 678 675 676 678 678 677 677 681 688 691 690 689 691 695 700 705 707 705 705 705 705 706 706 706 706 707 707 706 707 706 706 707 708 708 707 708 708 707 707 707 707 707 707 706 707 707 707 706 705 704 703 701 700 700
739 737 737 735 731 728 729 728 726 726 728 728 725 723 720 714 711 711 712 711 709 708 709 710 708 705 701 697 693 691 689 687 683 680 678 680 684 686 686 685 688 689 689 693 698 701 703 707 710 709 706 706 707 707 706 706 706 706 706 706 705 706 706 706 707 707 707 707 707 708 707 707 707 708 708 708 708 708 708 708 707 706 705 703 702 702 702
738 736 735 736 734 732 733 734 732 733 736 734 729 726 724 721 718 717 715 713 711 711 711 710 707 704 702 697 694 694 694 689 685 685 685 684 688 692 691 687 686 687 690 695 700 703 707 712 715 712 709 709 709 709 709 709 708 707 707 706 706 706 706 707 707 707 707 707 707 707 707 708 708 709 709 710 709 709 708 708 708 707 706 704 703 704 704
738 736 734 737 740 739 739 740 740 739 738 735 731 728 727 724 722 718 715 713 714 714 711 707 702 700 700 699 697 696 693 690 690 692 690 690 697 700 695 691 693 694 695 699 704 707 711 715 714 712 711 711 710 712 712 711 709 708 708 707 708 707 707 707 707 707 707 707 707 707 707 708 708 709 710 710 710 709 708 708 708 707 706 706 705 705 704
740 738 736 739 743 744 743 743 743 742 738 734 730 727 725 725 724 719 714 712 712 710 706 701 698 697 698 700 701 698 693 690 693 695 695 699 705 703 695 696 704 706 703 704 709 713 716 716 714 713 713 712 712 713 713 712 710 710 708 708 708 708 707 708 708 708 708 708 707 707 708 708 708 709 709 709 709 709 709 708 708 708 707 706 706 705 704
741 740 741 743 746 747 745 744 744 741 736 732 728 724 721 721 720 716 711 708 707 705 702 699 695 694 695 696 697 695 691 691 696 700 700 704 710 708 702 704 709 709 707 709 712 714 717 719 717 715 714 713 713 714 714 713 712 711 710 709 709 708 708 709 709 708 708 708 708 708 708 708 708 709 709 709 709 709 709 709 709 708 708 707 706 705 704
742 742 742 742 742 740 738 737 737 733 727 722 719 717 714 713 711 709 708 707 706 704 703 701 698 697 699 697 694 693 695 697 700 702 703 708 715 715 711 712 715 716 716 716 716 716 718 719 718 716 716 716 715 715 714 713 713 712 711 710 710 709 709 709 709 709 709 709 708 709 709 709 709 709 709 709 710 710 710 709 709 708 708 707 706 705 705
743 743 743 741 739 736 731 728 727 725 719 716 715 714 713 712 710 708 708 709 707 704 704 703 701 701 701 699 697 700 703 704 704 706 711 717 719 717 716 719 721 721 720 720 720 720 720 719 718 717 718 717 716 716 715 714 713 713 712 711 711 710 710 710 710 710 710 710 710 710 710 710 710 710 710 711 711 710 709 709 709 708 708 707 706 706 705
744 743 742 740 739 737 734 730 728 726 723 720 718 717 715 714 712 710 709 709 706 703 702 701 699 700 703 706 708 710 710 709 710 715 721 724 722 722 724 727 726 723 722 721 721 721 722 720 719 718 719 719 718 718 716 715 714 713 712 712 711 711 711 710 710 710 710 711 711 711 711 711 711 712 712 712 711 709 709 709 709 708 708 707 707 707 706
746 746 743 739 737 737 736 734 732 730 727 723 721 720 719 717 715 712 709 706 703 701 700 699 699 703 708 713 716 715 714 716 720 724 726 725 725 726 728 728 726 723 721 720 720 721 723 722 720 719 720 720 720 718 717 716 715 714 713 713 712 712 711 711 711 711 711 711 711 711 712 712 712 713 712 711 710 710 710 709 709 709 708 708 708 708 707
Wind_Speed
20 21 20 19 20 20 19 17 18 21 22 21 19 15 8 5 7 11 11 7 7 6 7 8 8 9 10 12 13 12 10 11 12 13 14 14 12 12 13 14 14 13 13 12 12 11 10 10 12 10 9 10 8 3 4 7 11 11 11 13 14 10 7 8 9 8 9 13 15 17 20 21 19 17 16 17 17 16 16 13 11 13 15 14 13 14 12
20 20 19 18 19 18 16 15 16 18 18 18 18 12 5 5 8 10 7 6 8 7 7 8 9 9 11 13 14 13 12 12 13 13 13 12 11 12 13 13 14 14 13 13 13 12 10 10 12 12 10 9 9 7 5 6 9 9 5 6 11 10 8 9 9 8 9 11 12 14 16 15 13 15 17 19 22 23 20 16 12 14 18 19 16 13 12
20 20 19 18 18 16 15 14 14 16 15 14 14 9 6 6 6 6 6 8 9 7 7 8 9 10 12 13 13 12 11 12 14 14 14 13 12 12 12 13 14 14 14 15 15 14 12 10 9 10 11 9 9 8 8 9 10 4 7 7 5 10 9 10 11 10 10 11 11 11 12 12 11 15 20 23 26 26 21 14 13 14 17 20 18 13 13
20 20 19 18 17 16 15 15 15 16 15 12 12 10 7 6 5 5 4 6 7 7 8 9 9 9 10 10 11 12 11 11 13 15 15 15 14 12 11 12 13 14 16 15 14 16 15 11 8 8 9 9 8 7 6 7 5 3 9 6 4 7 9 12 14 14 12 11 11 11 12 13 14 18 23 24 25 26 21 14 14 15 13 15 15 14 17
20 21 20 18 18 16 15 15 14 14 14 11 10 9 7 5 5 5 4 4 5 7 7 6 6 8 9 8 8 11 11 10 10 11 12 14 15 13 11 13 13 13 15 14 13 14 15 14 13 11 10 8 5 5 5 6 2 2 5 7 6 6 10 13 17 19 18 16 14 15 16 16 17 20 23 24 24 26 24 20 19 16 14 15 13 12 19
21 21 21 19 18 17 15 14 13 12 12 10 9 7 5 5 5 6 6 6 6 6 6 6 8 11 11 9 10 12 12 11 9 8 9 12 14 12 12 15 16 15 14 13 12 13 14 14 15 14 12 10 9 8 9 10 7 5 8 8 7 8 10 13 16 19 21 21 20 20 18 17 17 18 21 23 24 26 26 25 24 20 17 16 13 14 20
22 22 21 20 18 17 16 15 12 10 10 10 9 6 5 5 6 5 6 6 7 9 11 11 12 13 11 9 10 12 12 13 12 8 7 10 13 12 13 15 17 17 17 13 11 12 12 12 13 12 11 11 11 10 10 10 10 11 10 8 8 8 8 12 15 16 19 22 22 23 23 20 20 20 21 22 24 27 26 25 26 25 23 23 19 18 20
23 21 21 20 18 17 17 16 13 10 9 10 9 7 6 6 6 5 5 6 8 9 10 9 9 10 9 9 10 11 12 13 12 9 8 9 10 11 14 15 14 15 18 17 15 13 11 10 9 9 9 9 8 8 8 8 10 12 11 8 8 8 8 10 12 12 16 21 23 24 25 23 23 23 23 24 24 26 26 24 24 24 24 26 26 23 19
22 21 20 20 19 17 16 16 15 11 8 9 8 7 7 7 8 7 6 7 7 7 7 7 7 7 7 8 9 10 11 9 9 9 10 12 12 10 10 10 9 8 11 15 15 13 10 10 9 6 6 6 5 5 6 6 7 10 10 9 8 8 8 8 8 9 11 16 22 25 25 25 25 25 24 25 24 22 22 21 21 21 21 23 24 22 17
21 21 20 19 19 18 17 16 15 11 10 9 7 6 7 7 8 7 6 7 8 7 7 7 7 6 7 8 8 8 8 7 9 8 8 10 10 9 10 11 8 7 7 7 5 5 6 8 8 7 8 8 8 8 9 10 9 7 8 8 8 8 8 7 7 8 8 11 16 20 21 21 20 20 22 24 23 22 22 21 22 22 20 18 18 17 14
21 21 20 19 18 18 17 16 15 13 12 12 9 8 8 6 5 5 6 8 9 8 8 8 8 7 8 9 10 9 10 9 7 6 7 8 9 10 12 12 8 6 5 4 7 9 10 10 10 10 11 13 13 12 13 15 14 9 7 7 8 9 9 7 5 5 7 9 10 12 14 14 13 14 19 23 24 25 24 23 23 22 18 15 13 13 14
21 21 20 19 18 18 17 16 14 14 15 14 13 12 11 8 5 4 5 8 9 8 8 9 9 9 10 10 11 11 12 13 10 8 9 11 13 13 11 11 9 5 5 9 11 12 12 11 12 13 15 16 17 17 17 18 17 14 11 9 8 9 9 7 5 5 7 6 8 10 11 12 12 13 16 21 23 24 25 25 25 24 22 20 18 16 14
21 20 20 19 18 18 17 15 14 15 15 16 17 15 12 10 7 5 5 7 9 9 9 10 11 12 13 13 13 13 13 13 12 11 11 12 14 13 9 8 10 9 10 13 13 12 10 9 10 12 14 15 15 18 20 21 19 17 15 13 10 9 9 7 5 6 6 6 8 10 9 10 14 14 13 16 19 21 22 23 23 24 23 21 20 19 16
21 20 19 19 18 18 17 15 15 16 15 17 19 17 13 12 10 6 4 6 8 8 9 10 11 12 12 12 11 11 10 11 12 11 10 10 12 13 10 9 10 10 10 11 9 7 6 6 8 9 10 11 12 14 17 19 19 20 19 16 12 10 9 8 6 6 6 6 8 8 8 12 15 11 6 7 9 11 12 15 17 20 21 20 18 19 19
21 20 19 19 17 17 16 15 15 16 16 17 19 16 14 15 14 9 5 4 6 8 9 9 11 11 10 9 10 9 8 8 8 8 9 9 9 10 10 9 9 10 10 8 6 5 6 7 8 9 10 11 12 11 11 12 15 19 20 16 12 11 9 8 8 7 5 6 6 6 9 11 9 3 6 7 8 9 8 9 14 15 17 19 18 18 19
20 20 19 18 17 16 16 14 15 15 16 17 18 17 15 15 16 13 7 4 5 7 7 7 9 10 9 9 10 10 8 7 6 7 7 7 6 7 9 10 10 11 10 7 5 5 7 8 9 9 10 12 12 10 10 10 11 15 17 15 14 12 8 7 9 9 8 8 6 5 8 6 2 7 10 10 9 10 6 8 14 13 14 16 17 18 19
20 19 18 17 17 16 15 14 14 14 15 15 17 17 16 14 16 15 10 5 5 8 9 11 10 8 6 7 8 7 6 6 6 6 6 6 6 7 9 10 10 10 11 8 6 6 8 9 9 9 10 11 11 10 11 12 11 13 15 14 13 12 9 7 10 11 9 10 7 5 7 4 5 9 11 10 10 8 5 11 12 10 13 15 15 17 16
18 18 17 16 16 15 14 13 12 12 14 14 16 18 17 14 15 15 10 5 5 7 10 13 13 10 8 8 8 7 6 6 6 5 6 7 7 6 8 8 6 6 8 7 6 7 8 9 9 9 9 10 10 9 10 12 12 13 15 13 11 11 10 9 11 11 10 11 9 7 6 2 6 11 12 9 8 6 9 10 5 2 6 9 11 13 12
18 16 15 15 15 13 13 13 12 12 13 13 13 15 15 12 14 16 10 5 4 7 9 11 12 11 11 10 9 8 7 7 6 5 6 6 3 8 10 7 4 3 4 5 6 6 7 8 8 8 9 8 8 9 10 12 12 13 15 14 12 11 10 9 10 11 10 9 8 8 5 3 9 14 11 5 6 6 5 4 5 4 3 5 8 11 10
17 16 15 14 13 12 12 12 11 10 11 12 13 14 12 11 14 16 13 7 5 8 11 14 15 15 14 13 12 10 8 8 7 5 7 6 4 9 7 5 2 3 4 4 6 5 5 7 8 7 7 7 5 6 8 10 11 13 16 14 12 11 10 9 10 8 7 8 7 7 5 3 11 13 7 3 4 4 4 5 4 3 2 3 5 8 11
15 14 13 12 12 12 12 11 10 9 10 11 12 12 12 12 14 16 16 12 7 6 9 11 13 15 14 15 16 15 13 12 11 8 7 7 5 6 4 1 3 4 3 2 4 3 2 5 6 5 4 3 2 4 8 10 10 12 13 12 11 11 10 8 9 8 7 9 7 3 0 4 9 8 5 4 5 5 5 4 3 6 6 6 7 10 13
13 11 11 12 11 11 11 10 9 8 9 10 11 11 11 12 13 14 15 14 11 11 12 14 16 19 21 22 22 22 20 19 17 13 9 7 6 6 6 7 6 3 2 3 4 3 3 4 4 4 3 3 3 5 8 9 8 9 9 8 9 11 10 7 7 7 4 3 4 5 5 5 6 5 4 5 4 4 5 3 6 8 7 8 9 11 13
11 10 10 11 11 10 10 9 8 7 7 8 10 11 11 10 9 10 12 12 11 13 17 20 19 19 22 24 25 27 26 24 23 21 16 10 7 7 8 8 6 4 2 3 3 4 5 5 5 4 4 4 4 5 6 5 4 6 8 5 4 6 8 6 6 6 4 4 6 8 8 6 5 4 4 5 4 5 6 6 7 8 8 9 9 11 12
10 10 10 10 10 9 8 8 8 7 7 8 10 11 11 10 8 7 7 7 6 7 11 13 12 11 13 15 16 19 21 22 24 25 22 16 11 7 6 5 5 5 3 2 3 5 5 5 5 5 5 4 4 4 4 2 3 4 7 6 6 5 0 4 8 8 5 4 6 9 9 7 6 4 3 7 9 9 9 8 8 9 10 11 11 11 12
9 9 9 9 9 8 7 7 7 7 7 8 9 9 10 11 10 8 7 6 5 5 7 8 9 11 14 14 13 14 14 16 17 19 21 22 18 12 7 3 2 2 2 3 4 5 5 4 5 6 5 4 3 3 0 2 0 2 2 3 4 3 6 1 10 10 5 5 8 11 11 9 9 7 5 8 11 12 11 10 9 11 12 13 14 13 12
8 8 7 7 7 6 6 6 6 7 7 7 7 8 10 11 10 9 7 6 5 5 6 8 9 10 11 12 14 15 14 14 15 17 20 22 22 19 15 9 6 4 3 3 4 5 5 4 5 6 6 3 2 3 1 1 1 3 5 6 4 5 5 2 10 10 6 8 10 12 12 8 9 9 10 10 11 11 13 13 13 14 15 15 16 16 14
7 7 6 7 6 6 6 5 5 6 6 6 6 8 10 10 10 9 8 7 5 4 6 7 7 8 12 16 19 18 15 16 18 19 19 20 20 20 17 12 8 7 5 3 3 3 3 3 4 6 7 5 4 3 1 2 2 5 6 8 8 3 1 2 6 8 6 7 8 9 10 6 4 8 11 12 11 11 13 15 15 15 15 15 16 17 16
7 6 6 6 6 6 5 5 5 5 5 5 6 8 11 12 11 11 11 10 8 6 6 8 9 12 14 15 14 12 12 15 17 18 18 19 20 19 15 11 8 7 5 4 3 2 3 4 4 4 5 6 5 1 3 3 2 4 6 8 8 5 4 4 1 2 4 9 10 8 8 7 4 5 8 10 10 9 12 14 14 14 14 15 15 15 16
7 7 6 6 5 5 5 5 5 5 5 5 6 8 10 10 10 10 11 12 10 8 6 8 9 9 9 11 11 10 9 12 14 15 15 16 17 16 13 10 9 7 5 4 2 2 4 5 4 3 5 7 5 2 3 2 3 4 6 8 7 5 6 5 4 3 4 11 11 9 10 9 5 4 7 9 10 10 12 13 12 12 13 14 14 13 13
7 7 6 5 5 4 4 4 4 4 5 6 6 7 6 4 3 5 8 10 10 7 5 6 7 7 8 11 11 9 6 8 12 14 14 13 12 12 11 9 8 6 5 4 3 2 3 5 5 5 7 8 5 1 2 3 5 4 6 8 7 6 6 6 5 2 6 12 12 12 14 13 8 6 9 9 9 10 11 11 11 11 11 11 11 11 10
7 7 6 5 5 4 4 4 4 4 5 6 6 4 2 0 2 3 1 4 4 4 4 5 6 7 7 7 8 7 7 6 8 9 10 9 8 10 11 9 7 6 5 4 3 2 3 5 6 4 4 4 3 0 2 3 5 4 4 5 5 6 8 8 7 3 10 15 16 16 16 12 8 8 9 9 7 8 9 9 10 10 10 10 10 10 10
7 7 6 6 5 5 5 5 6 5 5 7 8 6 5 4 3 2 0 1 2 3 3 4 6 6 4 4 5 6 5 6 6 5 6 7 7 8 9 7 5 6 5 4 3 3 4 7 6 1 2 3 2 1 3 4 5 4 4 5 5 7 8 8 9 8 10 12 14 15 14 10 8 9 9 7 5 6 8 8 7 7 8 8 9 10 10
8 7 7 7 7 7 7 7 7 7 8 10 12 12 10 9 10 10 8 6 6 5 4 4 5 5 4 6 6 1 4 6 6 5 6 7 6 5 6 5 5 5 6 4 3 3 6 6 3 3 2 1 0 4 5 6 7 6 5 7 8 7 8 8 9 11 11 10 10 12 12 10 9 9 9 8 6 6 6 6 5 5 7 7 7 8 9
9 9 8 8 8 8 9 9 9 9 9 9 8 5 3 3 7 11 11 7 5 5 4 3 5 5 6 6 2 3 4 2 4 6 5 6 7 5 5 5 4 5 6 6 5 5 5 3 1 4 3 2 3 5 5 6 7 6 4 6 6 6 6 8 9 10 10 11 11 12 11 10 9 9 9 8 7 7 7 5 4 4 5 5 5 6 6
11 10 10 10 10 10 10 9 8 8 7 5 2 1 2 2 3 7 12 10 4 3 3 3 3 5 7 5 0 4 4 3 5 6 5 6 8 6 5 5 4 4 5 6 6 4 2 1 1 3 3 3 4 4 4 6 6 4 4 5 5 4 5 7 7 7 8 8 10 10 10 10 11 10 9 8 7 7 7 5 4 3 3 3 4 4 4
13 12 12 12 11 8 6 4 5 4 2 1 1 1 3 6 5 4 10 10 6 4 3 3 3 4 6 5 2 3 5 3 4 5 4 6 7 5 5 5 4 4 5 4 3 1 1 1 1 4 4 4 5 5 5 6 6 6 6 5 5 5 7 6 5 6 8 10 10 9 9 10 10 7 5 5 5 5 5 4 2 2 2 2 2 2 2
13 12 12 10 8 5 3 1 1 2 3 6 7 5 5 5 4 4 6 7 7 5 3 4 4 4 5 5 4 4 4 2 2 3 4 5 5 5 6 6 4 4 4 3 2 3 3 1 3 7 7 6 7 7 6 7 7 7 6 5 4 5 5 4 3 5 8 9 9 8 7 7 7 5 4 4 4 4 3 2 1 1 2 2 2 2 2
12 10 8 6 4 2 1 1 1 6 10 11 8 4 3 4 4 3 3 3 3 4 3 4 5 5 5 5 4 4 4 3 1 2 4 4 4 4 5 4 2 3 3 3 3 2 2 3 6 7 7 8 8 8 7 7 7 6 5 4 3 2 2 1 1 4 6 6 5 5 5 6 6 4 3 3 3 3 2 1 1 2 3 3 3 3 3
11 8 6 4 3 3 3 4 8 11 11 7 5 3 2 2 2 2 2 2 2 3 3 3 5 5 5 5 5 4 4 4 3 1 3 4 3 3 4 3 2 2 3 5 3 2 2 5 6 6 7 8 7 7 6 6 6 5 5 4 3 1 0 2 1 2 3 3 3 3 3 4 5 4 3 3 3 3 3 3 3 4 4 4 4 4 4
10 7 5 3 4 5 7 10 11 9 5 3 3 2 1 1 1 0 0 1 2 2 2 2 4 4 4 5 5 4 4 4 3 2 0 1 1 1 3 3 3 3 4 4 1 1 2 5 5 5 6 6 6 6 6 5 5 5 4 4 4 3 2 1 1 3 4 4 4 3 2 3 4 4 4 4 4 5 5 5 5 5 5 6 6 6 6
10 7 5 5 8 10 12 12 8 5 3 2 1 1 1 1 1 1 1 2 1 1 1 2 4 3 4 4 4 4 5 4 3 3 2 1 1 1 2 3 2 2 3 3 1 1 2 4 5 5 5 5 6 6 6 5 5 5 4 4 4 4 4 4 4 4 4 5 4 3 3 4 5 5 5 5 5 6 6 6 6 7 7 7 8 8 8
10 8 8 10 12 11 9 6 3 2 2 2 1 1 1 1 1 1 1 1 2 2 1 1 3 3 5 5 4 3 4 4 3 3 2 2 2 2 1 3 1 1 3 3 1 0 3 4 5 5 5 5 5 6 6 6 5 5 4 4 3 4 5 6 5 5 5 5 5 5 5 6 6 6 6 7 7 7 7 7 8 8 9 10 11 11 11
8 5 6 7 6 4 3 2 1 1 2 2 2 2 2 2 1 1 1 1 2 3 2 1 2 3 4 4 3 2 2 2 2 2 1 3 2 2 1 1 1 2 3 2 1 2 4 4 4 6 5 4 5 6 6 6 6 5 4 4 4 4 5 6 6 6 6 6 6 6 7 7 7 7 6 7 7 8 8 9 8 8 10 12 13 13 12
4 3 3 2 2 2 2 2 2 2 3 3 3 4 4 4 3 3 3 2 3 4 3 3 5 5 3 2 2 1 1 2 2 1 2 3 2 1 2 3 3 1 1 1 2 3 4 4 3 5 5 5 5 5 6 6 5 5 5 5 5 5 6 7 7 7 7 7 7 7 7 7 7 7 6 6 7 7 8 8 8 9 10 12 12 12 12
3 2 1 1 2 3 2 2 2 3 3 3 3 4 5 5 5 5 4 4 4 5 5 5 6 5 4 3 2 2 1 1 2 3 2 2 3 3 2 2 2 1 2 3 3 4 5 5 4 4 5 6 6 5 5 4 4 4 5 6 6 6 7 7 8 8 7 7 8 8 7 7 7 6 6 7 7 7 8 8 8 9 10 11 11 12 12
2 2 2 2 3 3 3 3 3 3 2 3 3 4 4 5 6 5 5 4 4 5 6 6 6 4 2 2 2 1 1 1 2 3 2 2 3 3 2 2 2 2 2 4 4 4 5 6 5 5 6 6 6 5 4 2 2 4 5 6 7 7 7 8 8 8 7 8 8 8 8 8 8 7 7 8 8 9 9 9 9 9 9 9 10 11 11
1 2 2 2 3 3 3 2 2 2 3 4 4 4 4 4 5 6 5 4 4 5 6 6 4 1 1 1 1 1 0 1 2 3 2 2 2 2 1 1 2 2 2 4 5 5 5 5 5 6 7 6 5 5 3 2 3 5 6 7 7 7 7 7 7 7 7 7 8 8 7 8 9 9 9 9 9 9 10 10 9 9 9 9 10 10 11
1 1 2 2 2 3 2 1 2 4 5 5 5 5 4 4 5 5 4 3 4 5 5 5 3 0 2 0 1 1 2 2 3 3 2 2 1 2 2 3 3 3 3 4 6 6 6 5 4 5 6 5 5 4 3 3 4 6 7 7 8 8 8 8 8 8 8 8 8 7 7 8 9 9 9 9 9 9 9 9 9 9 10 10 10 11 11
1 2 2 2 1 1 2 3 3 3 2 2 2 3 3 3 3 4 4 3 4 4 3 3 3 2 2 2 1 3 4 4 3 3 3 3 3 2 3 3 4 3 3 4 5 6 6 5 4 5 6 5 4 3 3 4 4 4 5 6 7 7 7 7 7 7 8 8 8 7 7 8 8 8 8 8 7 7 8 9 9 9 10 11 11 11 12
1 2 4 3 3 4 4 3 4 5 6 6 6 6 6 6 6 5 4 4 4 3 2 2 1 1 2 2 2 4 4 4 3 3 4 4 4 3 3 3 3 4 4 5 5 4 4 3 3 4 5 5 3 3 4 4 3 3 3 4 4 4 6 6 6 7 7 7 7 8 8 8 8 7 7 6 5 6 7 9 9 9 10 11 11 11 12
1 3 5 5 5 6 6 6 7 8 8 8 8 8 7 7 7 6 5 4 4 3 2 1 1 1 2 4 4 3 3 3 3 4 4 4 3 3 4 4 4 4 4 5 4 4 3 3 3 4 4 4 3 3 3 3 3 3 3 3 3 3 4 5 6 6 6 6 6 7 7 7 6 6 5 5 5 6 7 8 9 9 9 10 10 10 10
3 3 4 5 6 6 5 5 6 7 7 7 7 7 7 7 7 7 7 6 3 1 2 2 2 3 4 4 3 2 2 2 3 4 4 3 3 3 4 4 3 1 2 4 4 4 3 3 4 4 4 3 3 2 2 2 3 4 4 4 4 4 3 3 4 4 5 5 6 6 5 5 5 5 4 4 6 6 6 6 8 9 9 9 9 9 9
Wind_Direction
308 309 308 309 312 315 321 327 333 339 343 347 343 327 308 284 283 302 302 253 231 255 254 247 243 237 243 252 253 252 250 249 249 245 238 234 231 227 230 234 235 238 237 233 233 231 235 238 234 237 233 225 227 175 151 216 213 202 211 207 200 207 213 217 229 227 218 217 216 214 212 216 225 221 213 215 216 218 226 226 222 230 228 225 235 238 231
308 308 306 310 313 314 317 323 330 337 342 345 338 326 311 300 287 288 280 215 211 239 249 251 253 246 246 248 250 251 251 248 246 242 236 231 228 228 227 226 226 232 233 231 233 230 230 238 234 238 244 231 226 217 194 219 215 196 218 224 194 195 206 206 218 227 217 214 215 211 204 208 224 225 219 220 218 218 225 226 224 232 229 225 231 234 226
305 306 306 308 311 311 311 315 324 330 334 341 337 322 305 297 278 260 237 209 212 236 258 271 273 266 260 258 260 257 250 247 244 243 245 240 237 238 232 227 226 227 229 230 232 230 231 235 227 227 234 225 216 211 210 227 218 192 355 338 203 196 204 202 212 218 211 210 212 207 201 203 218 225 224 224 221 219 222 222 223 230 225 225 234 235 227
303 304 305 306 306 305 306 309 318 323 325 336 334 316 304 301 289 278 251 218 222 241 256 263 262 266 271 271 268 261 253 249 240 237 244 244 244 249 242 232 226 221 223 227 226 226 227 231 231 228 227 218 197 177 189 226 226 2 345 323 213 213 217 208 215 224 222 219 216 215 214 212 214 219 223 226 225 223 224 223 226 230 223 225 238 242 237
300 301 303 302 300 299 300 302 310 314 315 324 327 308 292 284 282 296 312 295 271 259 251 252 265 281 284 279 275 270 265 263 244 230 236 238 238 244 243 235 229 219 217 221 225 225 225 227 232 235 235 235 215 183 207 230 215 353 280 234 207 232 226 209 215 227 232 233 228 224 224 224 222 219 219 222 224 225 227 228 229 230 230 230 225 225 239
298 300 301 299 295 294 293 294 300 304 305 310 314 301 282 272 282 312 324 300 281 290 306 319 319 306 294 281 275 275 271 269 261 240 239 240 234 234 234 230 230 228 224 225 227 226 226 227 230 232 235 243 250 246 240 228 206 210 230 215 210 235 228 217 222 228 233 236 235 233 233 232 232 230 226 223 221 225 230 232 232 231 235 239 220 205 226
297 298 297 296 293 291 289 288 288 289 292 295 295 290 284 278 278 305 317 293 287 304 312 314 307 295 290 280 268 268 267 264 264 260 255 246 235 231 235 231 228 230 232 234 232 225 226 228 224 224 228 232 239 246 245 233 219 221 226 210 211 233 230 225 233 239 239 240 240 239 239 236 234 235 235 232 226 225 229 232 234 234 237 243 237 223 224
297 295 293 293 291 289 288 284 278 275 279 281 276 267 274 290 291 300 311 297 289 291 289 289 288 282 279 272 265 266 266 266 271 271 264 259 247 234 235 237 238 236 233 233 234 230 235 243 231 219 222 224 227 237 245 240 221 219 221 204 204 225 220 215 232 245 241 239 240 240 240 239 236 233 233 236 235 231 229 229 230 234 237 239 241 239 236
299 296 292 290 288 287 286 281 276 268 258 264 269 264 265 279 287 289 291 286 278 274 268 267 273 273 265 262 264 261 261 282 311 302 272 265 265 262 263 273 283 270 241 231 233 235 240 255 260 250 243 249 257 255 259 261 236 219 214 199 197 220 220 208 223 240 238 234 234 235 238 240 239 235 229 231 234 235 234 231 227 228 231 232 235 239 239
301 299 295 291 287 285 282 277 273 261 241 244 262 268 264 267 272 269 269 274 273 273 274 264 258 261 259 264 273 267 270 308 331 313 276 260 265 294 327 330 320 296 261 243 259 291 290 286 292 291 279 275 276 272 270 273 271 249 223 208 206 222 225 212 218 236 243 241 236 234 237 238 236 233 229 228 231 233 236 236 233 230 229 228 231 234 234
297 297 295 292 287 284 280 272 266 255 240 238 248 261 262 261 269 267 262 268 267 261 263 256 249 253 257 267 278 275 277 294 301 288 282 285 296 319 333 327 309 285 289 329 348 334 315 299 288 277 269 265 259 257 259 261 261 257 243 227 216 218 222 216 216 235 244 250 251 245 240 239 236 230 227 227 230 231 233 234 233 231 231 237 244 240 231
293 293 293 291 288 286 280 270 261 251 241 239 245 255 257 250 251 254 250 264 271 266 260 258 259 267 268 272 279 276 276 282 282 277 279 288 296 304 309 305 289 281 322 341 339 325 307 286 266 254 249 250 249 247 246 245 244 241 237 231 215 207 215 218 215 232 240 246 249 243 237 238 244 244 235 230 230 233 237 238 234 230 229 232 240 244 239
292 292 292 289 288 286 280 270 261 253 244 239 238 243 247 241 236 241 245 260 269 267 266 269 272 275 273 271 274 275 275 280 280 274 269 274 283 288 290 284 277 288 319 328 325 316 300 277 261 250 238 235 239 241 237 234 233 228 225 228 223 212 217 219 213 225 238 237 233 238 250 254 251 253 252 243 234 232 237 240 236 232 231 229 231 233 236
292 291 289 287 288 286 279 269 260 253 247 243 239 240 242 234 228 233 246 255 264 269 272 273 273 272 270 271 277 279 277 277 276 268 262 264 272 277 281 282 283 295 312 316 311 298 277 258 247 239 227 220 225 228 226 225 223 218 215 218 220 215 217 218 214 217 229 239 239 249 274 266 249 245 257 264 257 251 250 246 240 234 231 230 228 227 229
289 289 288 286 288 289 283 273 263 256 251 245 240 239 237 231 228 232 239 248 267 273 268 264 269 277 283 288 292 290 280 272 270 270 267 260 260 272 282 289 293 294 293 291 286 268 254 245 234 223 212 208 213 213 209 209 210 210 210 209 206 209 211 209 211 214 220 239 249 255 261 256 246 272 5 359 332 328 318 266 245 236 230 227 226 226 228
288 289 288 286 288 290 286 277 268 261 253 246 241 241 239 231 228 230 235 245 256 259 270 287 290 288 294 296 288 279 273 272 279 285 275 254 254 284 296 296 291 279 265 256 254 251 247 237 231 228 217 208 210 206 195 191 192 196 198 193 187 193 194 194 213 221 219 227 236 243 251 258 356 9 357 350 338 343 338 253 239 230 219 220 224 225 224
288 287 288 290 291 290 287 281 271 260 250 243 239 240 239 229 223 224 225 230 242 254 277 294 293 280 276 281 278 271 276 287 284 279 273 269 283 306 309 307 292 258 235 231 235 238 240 234 229 232 226 213 209 204 194 190 184 176 176 175 176 184 185 193 216 219 213 221 229 236 248 268 18 2 341 333 331 331 267 236 237 215 195 198 210 217 212
288 285 286 291 292 290 289 283 274 261 251 243 238 240 241 232 222 224 227 235 246 252 264 271 271 270 269 274 282 287 298 300 289 285 285 277 285 311 313 311 301 245 223 233 240 231 235 238 231 229 229 216 209 207 197 190 185 174 170 172 179 188 191 201 214 212 209 216 223 239 252 276 12 346 332 325 313 278 231 234 268 259 197 191 197 202 196
288 287 287 289 290 292 290 284 276 264 253 244 235 239 245 235 222 222 226 237 242 246 261 271 273 274 272 272 277 276 273 273 273 285 283 266 307 337 308 277 264 264 247 247 248 233 233 239 234 231 229 216 210 215 205 194 188 177 174 181 188 186 187 200 209 209 213 215 221 243 251 47 12 335 319 294 260 248 242 283 329 323 248 203 191 189 178
290 288 286 287 290 294 291 286 278 264 254 244 232 234 244 239 224 219 220 227 244 254 263 268 267 269 269 266 265 262 261 262 256 255 262 263 336 341 298 218 184 307 280 249 243 232 226 234 235 236 231 219 224 237 218 200 191 180 178 188 192 181 181 197 201 196 199 203 212 235 231 39 4 333 308 273 266 288 338 342 347 21 76 126 146 145 137
294 287 285 290 296 297 294 289 279 264 254 243 233 235 245 242 230 224 226 232 243 259 266 268 269 271 270 266 263 261 261 260 256 258 268 275 302 313 284 256 351 320 303 294 267 255 269 254 240 242 250 240 251 246 217 195 180 177 183 190 187 181 187 196 190 184 196 202 196 190 47 12 355 336 312 314 329 339 337 335 53 70 71 83 90 96 105
297 288 287 292 297 295 291 288 280 265 254 241 229 231 243 242 232 227 228 231 235 247 263 275 278 275 272 268 265 261 259 258 256 257 264 270 271 266 270 295 307 290 310 332 302 298 334 308 268 259 263 239 207 215 214 201 176 169 187 200 192 191 201 200 181 179 196 196 152 93 60 22 355 341 320 318 340 3 356 25 82 80 75 78 81 86 92
296 292 292 293 296 295 289 284 277 262 251 239 225 225 239 250 241 224 223 232 242 253 263 270 272 269 265 261 257 253 251 252 251 247 244 252 265 261 259 274 285 278 284 317 325 329 324 311 297 280 263 247 224 212 214 220 198 172 181 186 153 169 193 190 160 143 104 79 86 84 72 38 358 344 344 351 12 32 38 53 65 63 63 66 68 75 80
297 296 298 297 296 294 288 279 271 260 249 240 231 231 244 257 254 237 237 246 255 266 269 266 262 263 266 267 263 254 245 242 242 240 237 238 249 256 252 251 253 257 270 348 356 331 310 298 294 283 278 290 275 235 197 200 248 227 203 175 114 89 151 177 152 152 157 135 100 84 74 40 354 341 19 27 28 34 43 51 54 56 60 60 58 66 70
299 298 302 304 297 288 284 277 268 259 251 243 238 240 249 253 247 237 243 257 264 276 284 281 275 273 274 275 272 262 250 240 237 233 228 226 229 239 256 271 257 254 313 358 339 319 308 299 293 287 284 287 295 298 121 128 251 284 224 145 106 14 325 189 151 156 153 121 100 87 75 41 8 11 31 25 23 30 38 48 60 62 62 61 60 61 62
301 301 304 307 300 288 284 281 269 260 256 250 243 242 250 255 247 229 230 258 272 267 272 282 283 280 277 274 269 264 257 247 237 227 222 222 224 232 246 267 287 294 316 336 316 306 308 297 283 287 290 286 303 320 346 86 58 76 66 31 351 292 293 153 152 153 118 96 100 97 87 50 11 16 22 15 16 26 34 44 55 60 61 61 60 57 54
310 307 302 301 302 298 293 287 275 266 261 255 249 245 249 255 250 236 238 257 268 262 265 276 291 303 300 289 280 270 255 242 234 227 224 224 224 227 234 246 264 275 282 291 283 268 271 280 282 288 290 287 290 309 42 42 34 85 70 14 346 316 358 89 169 178 151 131 133 121 110 95 27 14 12 9 16 33 39 38 39 47 57 61 61 59 55
320 315 305 300 300 299 294 286 280 275 269 261 253 252 254 254 250 245 244 246 251 268 284 288 297 305 301 291 282 267 244 231 227 224 222 221 220 221 225 230 238 250 258 264 275 274 261 268 282 291 296 292 280 234 88 65 50 75 48 8 359 6 4 360 325 203 135 129 131 123 113 110 88 38 21 11 11 39 57 48 34 34 44 52 58 59 56
323 317 311 308 304 294 288 288 285 281 278 269 261 262 261 253 249 251 247 241 244 260 283 290 289 294 300 300 296 282 248 223 217 215 213 213 213 213 216 221 225 233 244 249 263 290 274 270 264 248 270 287 279 195 130 105 92 58 10 351 353 353 345 347 347 348 105 117 119 117 111 106 99 77 56 29 8 23 53 56 44 37 38 44 50 53 54
325 322 315 312 309 297 289 289 285 283 284 274 266 270 263 236 244 272 253 236 237 249 271 288 288 290 299 296 288 277 245 213 209 208 205 203 206 208 210 214 218 223 234 243 248 265 271 271 262 239 250 274 284 230 154 126 107 69 7 349 352 3 11 0 330 308 118 112 109 108 104 103 105 93 71 47 19 22 38 42 43 45 45 46 50 48 47
329 329 323 317 313 302 296 296 294 292 288 276 269 274 271 145 40 15 206 196 221 253 263 273 281 288 288 272 258 264 261 224 200 198 199 198 202 204 203 204 204 205 212 229 245 254 255 256 257 256 264 281 296 339 131 124 110 81 31 8 2 12 27 18 357 40 110 114 110 104 101 105 113 100 74 54 39 44 51 44 36 38 41 46 50 49 43
331 329 325 322 315 306 303 304 298 286 274 269 270 276 281 278 287 302 214 222 295 289 276 283 292 296 300 291 286 285 256 196 167 165 190 201 205 201 197 196 195 194 199 217 236 239 245 250 252 278 340 294 289 56 77 89 95 89 70 57 38 23 23 20 17 42 84 107 112 107 98 88 84 87 86 81 67 63 70 67 49 40 46 48 50 52 47
332 329 324 319 316 311 304 299 293 285 276 271 271 272 272 266 255 250 254 272 282 267 257 287 298 296 302 309 313 342 141 156 159 167 190 196 191 185 185 186 192 195 194 198 215 231 244 248 233 95 68 286 112 84 74 81 100 110 91 66 54 38 27 25 29 41 52 61 80 96 99 91 85 87 91 89 68 41 49 68 73 66 62 56 52 52 47
330 326 321 316 309 302 297 294 288 279 272 269 269 274 281 261 240 232 225 227 256 260 246 265 296 309 307 294 273 111 100 162 186 182 188 181 171 169 169 173 189 200 191 196 219 239 244 240 144 94 70 51 79 82 77 88 106 114 87 55 48 46 44 39 37 45 50 51 60 73 83 89 87 76 66 62 48 24 24 51 80 81 73 67 62 54 43
322 317 313 311 303 296 295 291 275 262 258 255 245 79 39 334 270 216 199 199 228 276 266 261 293 320 317 303 124 72 8 299 196 176 167 162 167 171 158 159 189 203 183 194 224 241 247 274 65 78 64 55 63 69 88 105 106 90 55 35 23 39 67 61 44 43 56 65 69 70 69 70 69 59 47 45 40 25 23 41 69 84 90 86 73 59 42
320 313 310 309 301 290 286 282 262 252 257 293 324 311 289 293 293 219 196 205 228 267 301 313 306 304 310 315 349 5 334 299 173 153 145 154 167 176 168 170 196 195 170 186 215 149 112 292 24 76 72 63 63 65 82 101 97 79 67 56 42 54 74 74 56 54 63 67 68 69 69 71 71 65 49 40 37 30 24 23 41 89 115 114 95 86 75
319 314 314 313 296 262 233 185 200 258 307 314 312 301 268 257 248 198 195 213 223 226 258 299 292 285 304 315 319 331 334 333 143 148 163 162 159 168 180 186 188 176 167 163 108 91 97 96 86 80 73 74 79 75 73 82 87 85 84 79 67 67 74 72 61 67 73 71 67 66 73 78 77 72 60 50 47 48 46 29 21 101 120 119 110 106 104
330 324 319 312 296 262 113 86 295 296 306 310 309 294 229 210 208 199 199 208 200 196 219 264 278 287 301 298 300 334 350 320 256 173 167 165 155 169 187 182 156 165 165 132 105 96 93 91 90 86 83 86 86 78 71 75 82 84 81 73 61 61 97 138 88 60 66 74 70 63 75 87 86 80 72 61 55 62 77 95 111 103 92 82 80 84 81
344 336 322 311 328 9 17 341 314 306 304 295 275 249 214 210 231 224 183 181 203 211 219 247 275 298 310 305 313 346 344 304 291 144 152 166 167 178 183 162 143 179 162 135 139 177 126 101 99 99 97 92 82 73 70 76 84 86 85 82 71 50 260 218 198 65 77 93 85 66 68 85 99 116 134 135 121 109 100 90 78 72 69 62 58 61 62
352 344 335 337 347 344 333 324 318 311 294 253 242 260 261 234 252 267 176 226 236 216 213 256 283 299 307 307 316 331 326 315 329 353 50 145 144 201 186 159 165 188 156 128 127 217 120 109 109 106 97 86 82 82 80 78 79 82 84 88 89 84 88 110 100 98 107 108 97 83 76 91 113 123 118 109 105 98 89 81 72 63 59 59 58 58 58
345 335 322 317 318 316 314 312 306 285 262 262 279 299 312 306 311 326 295 296 323 115 189 293 312 327 326 319 314 311 316 325 322 298 296 47 36 257 182 150 161 181 136 113 16 326 101 102 101 98 90 83 85 86 80 76 77 77 76 80 82 83 89 90 80 81 94 101 97 95 100 107 112 110 101 93 88 81 76 75 70 61 58 61 64 64 63
315 297 288 295 301 300 300 302 290 254 277 315 317 299 317 347 358 322 314 349 10 30 28 331 325 313 306 305 294 282 302 331 325 286 282 47 21 332 160 142 159 113 103 94 343 321 105 99 97 99 95 88 84 80 74 72 72 66 66 75 80 80 87 91 87 83 90 99 103 103 103 103 100 94 88 84 80 73 68 63 58 54 54 56 59 61 60
316 288 278 290 297 292 288 313 334 319 325 343 347 332 338 5 10 340 20 43 2 357 17 1 298 282 276 275 266 257 280 311 309 302 347 51 33 350 16 71 54 67 81 64 6 81 87 85 98 106 100 82 69 66 64 65 66 64 67 75 81 86 88 91 94 92 90 92 93 91 88 89 90 89 83 76 72 72 70 62 54 52 55 57 56 55 52
322 287 268 279 302 316 330 338 348 8 16 11 2 350 354 10 16 9 13 14 348 348 2 339 312 316 332 332 326 348 336 287 280 319 18 50 48 7 30 60 67 79 96 90 89 86 75 69 87 103 99 85 69 58 52 54 61 69 75 75 79 88 92 93 95 95 92 90 90 87 85 85 86 85 78 68 64 67 68 62 54 53 57 61 60 55 49
313 299 301 333 338 340 351 359 7 16 13 356 353 358 356 353 351 350 356 354 329 317 321 315 305 306 316 320 340 30 18 340 3 13 10 31 46 31 27 56 72 88 98 90 90 94 92 91 96 98 92 87 79 66 54 52 59 75 86 86 84 87 91 92 91 88 86 85 85 85 86 88 87 82 75 69 65 65 65 60 55 53 54 57 57 54 51
354 339 336 359 7 4 10 11 6 4 353 334 335 339 338 335 331 324 322 324 311 301 303 308 309 315 339 3 6 355 306 317 28 23 359 28 55 39 353 356 37 61 82 82 79 86 93 97 103 102 93 86 80 74 66 64 81 95 98 97 95 95 96 94 91 87 85 84 83 81 80 81 81 79 76 72 66 62 60 57 52 50 51 52 50 49 49
22 348 333 14 34 16 5 5 347 312 297 302 314 322 322 316 310 303 294 288 290 292 292 292 292 301 82 69 349 309 276 51 52 37 17 29 48 21 332 15 43 41 70 86 90 94 94 88 86 87 87 85 84 83 81 89 101 101 99 98 99 100 99 95 93 91 88 83 80 76 73 72 73 72 71 69 64 57 54 52 49 48 50 50 47 45 44
2 350 352 33 40 3 335 304 270 273 268 257 260 278 285 276 283 301 313 300 288 294 303 306 304 330 115 104 329 58 68 51 43 44 41 49 40 10 30 66 60 29 39 81 95 100 99 93 84 83 84 83 83 84 86 90 93 94 95 95 94 94 94 92 89 87 83 79 76 72 66 63 63 62 61 62 60 53 49 49 51 51 50 49 46 43 41
13 22 23 36 38 341 292 257 260 288 305 279 266 297 320 324 324 341 352 333 305 303 312 318 333 13 26 341 1 55 48 28 29 49 51 49 45 29 38 67 68 48 47 68 77 79 83 85 82 82 83 79 71 67 70 72 72 76 82 84 84 84 87 88 85 80 76 73 70 67 63 59 56 53 52 52 52 48 46 46 45 46 47 46 44 43 42
43 40 30 25 16 0 351 352 5 12 17 21 17 9 1 354 353 1 6 346 314 290 265 267 317 24 10 351 30 59 44 19 23 46 42 34 33 35 45 56 54 55 68 77 78 80 84 77 69 80 87 80 60 49 52 53 51 52 61 69 73 76 79 81 80 79 76 71 66 64 62 58 53 50 47 43 40 46 51 48 43 41 43 43 41 41 41
34 42 35 31 25 15 7 11 20 18 10 6 7 4 355 350 352 355 348 324 290 264 255 307 2 26 27 26 35 43 29 6 19 42 44 30 12 25 56 63 51 51 75 91 96 99 97 79 67 82 87 73 49 38 35 35 40 43 44 47 54 61 68 72 73 74 74 73 68 63 59 54 50 49 44 36 34 42 48 47 42 39 39 41 41 39 39
10 10 19 29 30 22 9 6 10 5 357 358 4 359 349 349 348 337 325 318 317 343 30 32 29 34 42 45 39 27 30 39 40 44 45 36 14 29 64 77 72 71 104 111 112 111 106 88 71 68 65 52 36 21 10 23 40 42 33 30 33 36 40 52 59 60 64 69 67 60 52 50 47 40 33 34 39 38 36 37 38 36 35 35 36 36 35